Location: ??????
(41.3747°N, 22.5491°E)
Time: 05:51:33
(UTC+00:00)

Cosmos 2341 Rocket - Pass Details

Date: 01 December 2020
Orbit: 969 x 1003 km, 82.9° (Epoch: 20 January)

Event Time Altitude Azimuth Distance (km) Brightness Sun altitude
Rises 15:31:14 0° 353° (N) 3,700 6.8 -5.9°
Reaches altitude 10° 15:33:46 10° 355° (N) 2,753 6.2 -6.3°
Maximum altitude 15:40:06 78° 82° (E) 1,019 4.0 -7.4°
Drops below altitude 10° 15:46:26 10° 169° (S) 2,758 6.5 -8.5°
Sets 15:48:58 0° 170° (S) 3,706 7.2 -9.0°
